Location: Mascot Post Office (historical)
(40.2645°N, 99.5462°W)
Time: 02:38:57
(UTC+00:00)

Cosmos 371 Rocket - Pass Details

Date: 14 July 2020
Orbit: 685 x 698 km, 74.0° (Epoch: 14 August)

Event Time Altitude Azimuth Distance (km) Brightness Sun altitude
Rises 05:00:21 0° 340° (NNW) 3,074 8.1 -23.6°
Reaches altitude 10° 05:02:40 10° 340° (NNW) 2,151 6.9 -23.8°
Maximum altitude 05:07:31 84° 252° (WSW) 697 3.2 -24.2°
Enters shadow 05:07:51 77° 188° (S) 711 3.1 -24.2°
